Terminal Aerodrome Forecast
Issued by NWS

Home | Current Version | Previous Version | Text Only | Print | Product List | Glossary On
Versions: 1 2 3 4 5 6 7 8 9 10 11 12 13
000
FTUS46 KSTO 031100
TAFRBL
TAF
KRBL 031120Z 0312/0412 33006KT P6SM SCT060
     FM031800 36014G20KT P6SM SCT250
     FM040300 33007KT P6SM SKC=

USA.gov is the U.S. government's official web portal to all federal, state and local government web resources and services.